This demonstration page uses our WeatherBlox Daily Observations layout. Learn more.

Left ArrowRight Arrow

47.50024, -111.30081

Hourly Observations for July 13, 2020

Temp ( °F °C ) Dew Point ( °F °C ) Humidity (%) Winds ( mph kmh ) Pressure ( in mb ) Visibility ( mi km ) Precip ( " mm )
12:53 am 00:53 Clear 52 11.1 33 0.6 49 49 W 8 13 29.83 1010 10 16 0.00 0.00
1:53 am 01:53 Clear 51 10.6 31 -0.6 46 46 NNW 5 7 29.85 1011 10 16 0.00 0.00
2:53 am 02:53 Clear 48 8.9 36 2.2 63 63 NNW 7 11 29.88 1012 10 16 0.00 0.00
3:53 am 03:53 Clear 47 8.3 36 2.2 66 66 N 7 11 29.89 1012 10 16 0.00 0.00
4:53 am 04:53 Clear 45 7.2 36 2.2 71 71 NW 7 11 29.93 1013 10 16 0.00 0.00
5:53 am 05:53 Mostly Sunny 45 7.2 36 2.2 71 71 NNW 5 7 29.95 1014 10 16 0.00 0.00
6:53 am 06:53 Sunny 49 9.4 38 3.3 66 66 S 6 9 29.94 1014 10 16 0.00 0.00
7:53 am 07:53 Sunny 53 11.7 38 3.3 57 57 S 10 17 29.92 1013 10 16 0.00 0.00
8:53 am 08:53 Sunny 57 13.9 39 3.9 51 51 SSE 8 13 29.91 1013 10 16 0.00 0.00
9:53 am 09:53 Sunny 63 17.2 41 5 45 45 SW 15 24 29.90 1013 10 16 0.00 0.00
10:53 am 10:53 Mostly Sunny 67 19.4 35 1.7 31 31 W 13 20 29.89 1012 10 16 0.00 0.00
11:53 am 11:53 Mostly Sunny 69 20.6 34 1.1 27 27 WNW 8 13 29.90 1012 10 16 0.00 0.00
12:53 pm 12:53 Sunny 70 21.1 31 -0.6 23 23 WNW 9 15 29.90 1012 10 16 0.00 0.00
1:53 pm 13:53 Sunny 72 22.2 31 -0.6 22 22 W 7 11 29.88 1012 10 16 0.00 0.00
2:53 pm 14:53 Mostly Cloudy 74 23.3 32 0 21 21 WSW 14 22 29.88 1012 10 16 0.00 0.00
3:53 pm 15:53 Mostly Sunny 72 22.2 31 -0.6 22 22 VRB 5 7 29.87 1012 10 16 0.00 0.00
4:53 pm 16:53 Mostly Sunny 72 22.2 30 -1.1 21 21 W 6 9 29.87 1012 10 16 0.00 0.00
5:53 pm 17:53 Partly Cloudy 75 23.9 25 -3.9 15 15 WNW 15 24 29.86 1011 10 16 0.00 0.00
6:53 pm 18:53 Sunny 72 22.2 33 0.6 24 24 N 14 22 29.87 1012 10 16 0.00 0.00
7:53 pm 19:53 Sunny 68 20 33 0.6 27 27 NNE 13 20 29.89 1012 10 16 0.00 0.00
8:53 pm 20:53 Mostly Sunny 62 16.7 35 1.7 37 37 N 9 15 29.91 1013 10 16 0.00 0.00
9:53 pm 21:53 Clear 56 13.3 33 0.6 42 42 NE 7 11 29.93 1014 10 16 0.00 0.00
10:53 pm 22:53 Partly Cloudy 56 13.3 33 0.6 42 42 N 7 11 29.94 1014 10 16 0.00 0.00
11:53 pm 23:53 Cloudy 57 13.9 34 1.1 42 42 NNE 5 7 29.95 1014 10 16 0.00 0.00

Powered by AerisWeather